Regional Weather Roundup
Issued by NWS

Home | Current Version | Previous Version | Graphics & Text | Print | Product List | Glossary On
Versions: 1 2 3 4 5 6 7 8 9 10 11 12 13 14 15 16 17 18 19 20 21 22 23 24 25 26 27 28 29 30 31 32 33 34 35 36 37 38 39 40 41 42 43 44 45 46 47 48 49 50
000
ASUS43 KDTX 200101
RWRMI
MICHIGAN HOURLY REGIONAL WEATHER ROUNDUP
NATIONAL WEATHER SERVICE DETROIT/PONTIAC MI
900 PM EDT SUN OCT 19 2014

NOTE: "FAIR" INDICATES FEW OR NO CLOUDS BELOW 12,000 FEET WITH NO
SIGNIFICANT WEATHER AND/OR OBSTRUCTION TO VISIBILITY.

MIZ047>049-052>055-059>063-066>070-074>076-081>083-200200-
SOUTHEAST LOWER MICHIGAN

CITY           SKY/WX    TMP DP  RH WIND       PRES   REMARKS
ADRIAN         CLOUDY    47  37  68 SW7       30.03F
ALMA           MOCLDY    47  39  72 S5        29.95F
ANN ARBOR      CLOUDY    46  34  62 S6        30.01F
CARO           CLOUDY    44  38  79 CALM      29.97F
DETROIT CITY   CLOUDY    51  30  44 SW12      30.02F
DETROIT        CLOUDY    47  32  56 S8        30.03F
FLINT          CLOUDY    49  36  61 S6        29.99F
GROSSE ILE     CLOUDY    50  34  53 SW9       30.02F
HILLSDALE      CLOUDY    48  37  64 SW5       30.01F
HOWELL         CLOUDY    46  34  65 S5        29.99F

CITY           SKY/WX    TMP DP  RH WIND       PRES   REMARKS
JACKSON        CLOUDY    47  36  65 S6        30.00F
LAMBERTVILLE   CLOUDY    46  34  61 S3        30.04F
LANSING        CLOUDY    48  37  65 S8        29.98F
LAPEER         FAIR      44  36  73 S6        29.99S
MASON          CLOUDY    46  37  70 CALM      29.99F
MONROE         CLOUDY    46  34  61 S3        30.02F
MT. CLEMENS    CLOUDY    46  32  58 S7        29.99F
PONTIAC        CLOUDY    47  33  58 S7        29.99F
PORT HOPE        N/A     45  35  68 SE5       29.96F
PORT HURON     CLOUDY    43  36  75 CALM      30.00F
TRI CITIES     CLOUDY    49  38  65 S8        29.95F
TROY           CLOUDY    50  30  46 S9        30.02F
SAGINAW HB     CLOUDY    46  37  71 S6        29.96F
$$
MIZ043>046-050>051-056>058-064>065-071>073-077>080-200200-
SOUTHWEST LOWER MICHIGAN

CITY           SKY/WX    TMP DP  RH WIND       PRES   REMARKS
BATTLE CREEK   MOCLDY    48  37  65 S10       29.98F
BENTON HARBOR  MOCLDY    47  39  74 S6        29.98F
BIG RAPIDS     CLOUDY    47  44  88 S7        29.92S
COLDWATER      CLOUDY    50  37  62 S5        29.99F
FREMONT        MOCLDY    46  41  82 S6        29.92F
HOLLAND        MOCLDY    48  39  71 S5        29.96F
GRAND RAPIDS   MOCLDY    46  38  73 S8        29.95F
IONIA          FAIR      48  38  69 S9        29.95F
KALAMAZOO      MOCLDY    47  39  74 S9        29.99F
LUDINGTON      CLOUDY    50  46  84 S10G22    29.90S
MARSHALL       CLOUDY    47  37  66 S7        29.99F
MOUNT PLEASANT CLOUDY    48  37  65 S6        29.93F
MUSKEGON       MOCLDY    54  43  66 SW18G25   29.93F
SOUTH HAVEN    PTCLDY    48  41  76 S5        29.97F
$$
MIZ016>042-200200-
NORTHERN LOWER MICHIGAN

CITY           SKY/WX    TMP DP  RH WIND       PRES   REMARKS
ALPENA         CLOUDY    45  37  73 S6        29.91F
BEAVER ISLAND  RAIN      47  44  87 S9        29.86F
BELLAIRE       CLOUDY    49  38  66 SW5       29.90R
CADILLAC       CLOUDY    45  40  82 S12       29.89F
CHARLEVOIX     CLOUDY    48  40  73 S6        29.90F
FRANKFORT      CLOUDY    50  43  76 S9G22     29.88F
GAYLORD        CLOUDY    45  36  70 S13       29.88S
GRAYLING       CLOUDY    49  39  70 S7        29.90F
HARBOR SPRINGS CLOUDY    49  38  65 S9        29.88S
HOUGHTON LAKE  CLOUDY    46  37  71 SW10      29.91F
MANISTEE       CLOUDY    48  41  76 S6        29.90S
OSCODA         CLOUDY    47  37  67 S6        29.91F
PELLSTON       LGT RAIN  48  38  68 S6        29.88S
TRAVERSE CITY  LGT RAIN  48  40  73 S10       29.88S
$$
MIZ007>008-015-200200-
EASTERN UPPER MICHIGAN

CITY           SKY/WX    TMP DP  RH WIND       PRES   REMARKS
KINROSS        CLOUDY    43  43 100 SE8       29.85F
MACKINAC ISLAN LGT RAIN  48  40  73 S7        29.86F
NEWBERRY       LGT RAIN  46  44  95 SW18      29.82S
S. S. MARIE    CLOUDY    43  39  86 SE6       29.86F
$$
MIZ004>006-011>014-085-200200-
CENTRAL UPPER MICHIGAN

CITY           SKY/WX    TMP DP  RH WIND       PRES   REMARKS
MANISTIQUE     CLOUDY    49  47  92 S15G25    29.82F
ESCANABA       CLOUDY    50  45  81 S8        29.80S
MENOMINEE      MOCLDY    52  43  71 SW7       29.80R
SAWYER-GWINN   CLOUDY    45  43  93 S7        29.78R
$$
MIZ001>003-009>011-084-200200-
WESTERN UPPER MICHIGAN

CITY           SKY/WX    TMP DP  RH WIND       PRES   REMARKS
IRON MOUNTAIN  CLOUDY    46  42  86 SE5       29.77S
HOUGHTON       CLOUDY    44  40  85 W3        29.73S
COPPER HARBOR    N/A     47  43  86 SW8       29.73S
IRONWOOD       PTCLDY    48  45  87 SW7       29.72F
$$

ABBREVIATIONS USED IN REMARKS
   TC - TEMPERATURE IN CELSIUS
  WCI - WIND CHILL INDEX
   HX - HEAT INDEX
  VSB - VISIBILITY



USA.gov is the U.S. government's official web portal to all federal, state and local government web resources and services.